カタログに戻る

FENGYUN 1C DEB

運用中SSO
NORAD 30683·DEBRIS·🇨🇳 China

打ち上げ May 10, 1999 から Taiyuan Satellite Launch Center

Loading…

次のパス (今後24時間)

TLE

経年Source: Space-Track

元期: Sep 3, 2026, 20:36 UTC

1 30683U 99025AQR 26246.85874758  .00001079  00000-0  69087-3 0  9997
2 30683  99.4061 271.4073 0135588 219.8481 214.9753 14.01303821992631

AllMySatでFENGYUN 1C DEBをリアルタイム追跡

Download on the App Store